Torna al catalogo

ATS 1

AttivoScienzaGEO
NORAD 2608·PAYLOAD·🇺🇸 United States

Lanciato Dec 7, 1966 da Cape Canaveral Space Force Station

Loading…

TLE

AggiornatoSource: Space-Track

Epoca: Sep 14, 2026, 14:00 UTC

1 02608U 66110A   26257.58369198 -.00000136  00000-0  00000-0 0  9992
2 02608   5.1907  68.9600 0007004 185.0003 107.5147  1.00288301135699

Traccia ATS 1 in tempo reale con AllMySat

Download on the App Store